1998-067UX

Last updated on Mon Jan 09 2023 00:03:43 GMT+0000 (Coordinated Universal Time)

1 55130U 98067UX 23008.46855871 .00024661 00000+0 42781-3 0 9994 2 55130 51.6421 39.6479 0002474 258.0087 102.0625 15.50714082 1572
UTC large
Height (km)
Speed (km/s)
/
Latitude / Longitude
Inclination (degrees)
Orbital Period (minutes)
Azimuth
Elevation
Range (km)
Doppler Factor

Next 0 passes for location: London (51.5072 / 0.1276)

Sorry there are no passes over London.